Location: Austin
(30.3000°N, 97.7500°W)
Time: 10:24:25
(UTC-05:00)

Cosmos 2227 - Pass Details

Date: 05 September 2024
Orbit: 835 x 859 km, 71.0° (Epoch: 10 September)

Event Time Altitude Azimuth Distance (km) Brightness Sun altitude
Rises 20:10:02 0° 346° (NNW) 3,388 7.7 -5.5°
Reaches altitude 10° 20:12:33 10° 351° (N) 2,449 6.9 -6.0°
Maximum altitude 20:18:02 54° 68° (ENE) 1,006 4.3 -7.2°
Drops below altitude 10° 20:23:29 10° 145° (SE) 2,436 6.2 -8.4°
Sets 20:25:58 0° 150° (SSE) 3,368 6.9 -8.9°
